Flag for Poland Weather past 2 weeks in Olsztyn, Poland

Now
69 °F

Mild.


Feels Like: 69 °F
Forecast: 59 / 83 °F
Wind: 3 mph from Northeast

Location: Ketrzyn

Current Time: Aug 30, 2015 at 10:02:59 PM

Latest Report: Aug 30, 2015 at 9:00 PM


Visibility: 28 mi

Pressure: 30.09 "Hg

Humidity: 56%

Dew point: 53 °F

Location of OlsztynLocation

Historic Weather in Olsztyn — Graph

°F

Olsztyn temperature yesterday

Maximum temperature yesterday: 72 °F (at 4:00 PM)
Minimum temperature yesterday: 52 °F (at 6:00 AM)
Average temperature yesterday: 62 °F

Past Weeks' High & Low Weather Summary

 TemperatureHumidityPressure
High84 °F (Aug 24, 4:00 PM)98% (Aug 29, 3:00 AM)30.41 "Hg (Aug 29, 3:00 AM)
Low49 °F (Aug 22, 5:00 AM)25% (Aug 16, 2:00 PM)29.83 "Hg (Aug 28, 7:00 AM)
Average67 °F56%30.12 "Hg
* Reported Aug 15 8:00 PM — Aug 30 8:00 PM, Olsztyn, Weather by CustomWeather, © 2015

Note: Actual official high and low records may vary slightly from our data, if they occured in-between our weather recording intervals... More about our weather records

Advertising

Olsztyn weather history for previous 24 hours

 ConditionsComfort  
Time TempWeatherWind HumidityBarometerVisibility
8:00 PM
Sun, Aug 30
71 °FMild.2 mph55%30.10 "Hg28 mi
7:00 PM73 °FMild.1 mph51%30.10 "Hg19 mi
6:00 PM76 °FMild.No wind43%30.09 "Hg28 mi
5:00 PM78 °FPleasantly warm.2 mph39%30.11 "Hg22 mi
4:00 PM78 °FPleasantly warm.2 mph37%30.12 "Hg22 mi
3:00 PM79 °FPleasantly warm.5 mph35%30.14 "Hg19 mi
2:00 PM78 °FPleasantly warm.5 mph34%30.15 "Hg22 mi
1:00 PM77 °FMild.5 mph36%30.18 "Hg12 mi
12:00 PM75 °FMild.6 mph39%30.19 "Hg19 mi
11:00 AM75 °FMild.6 mph40%30.20 "Hg19 mi
10:00 AM72 °FMild.5 mph49%30.21 "Hg22 mi
9:00 AM67 °FMild.5 mph60%30.23 "Hg19 mi
8:00 AM61 °FCool.2 mph73%30.23 "Hg19 mi
7:00 AM55 °FCool.1 mph86%30.25 "Hg22 mi
6:00 AM53 °FCool.2 mph88%30.24 "Hg19 mi
5:00 AM52 °FCool.1 mph88%30.25 "Hg22 mi
4:00 AM51 °FCool.1 mph90%30.27 "Hg19 mi
3:00 AM51 °FCool.1 mph91%30.27 "Hg16 mi
2:00 AM51 °FCool.1 mph91%30.28 "Hg19 mi
1:00 AM52 °FCool.No wind89%30.28 "Hg16 mi
12:00 AM53 °FCool.1 mph86%30.28 "Hg18 mi
10:00 PM
Sat, Aug 29
58 °FCool.No wind75%30.27 "Hg9 mi
Weather by CustomWeather, © 2015

See weather overviewHow to use our weather pages